Location: Glasgow
(55.8642°N, 4.2518°W)
Time: 04:00:08
(UTC+01:00)

Amateur Radio Satellites - All Passes

Search period start: 21 October 2017 03:30
Search period end: 22 October 2017 03:30
Location: Glasgow, 55.8642°N, 4.2518°W

Satellite Date Start Highest point End Downlink Frequencies (MHz)
Time Altitude Azimuth
BUGSAT 1 21 Oct 03:35:24 03:39:16 34° 297° (WNW) 03:43:05 437.445
KKS-1 21 Oct 03:38:37 03:41:34 18° 52° (NE) 03:44:30 437.445
MOZHAYETS 4 21 Oct 03:49:19 03:53:55 59° 259° (W) 03:58:30
RS-15 21 Oct 03:58:36 04:11:01 72° 329° (NNW) 04:23:10 29.354- 29.394
CUBESAT XI-V 21 Oct 04:01:32 04:06:02 55° 68° (ENE) 04:10:34 437.345
STARS 21 Oct 04:10:30 04:13:11 16° 51° (NE) 04:15:53 437.465
Oscar 19 21 Oct 04:18:08 04:22:52 38° 299° (WNW) 04:27:35 437.125/150
ITUPSAT 1 21 Oct 04:22:55 04:27:22 36° 264° (W) 04:31:49 437.325
M-CUBED/EXP-1 PRIME 21 Oct 04:27:08 04:30:18 35° 301° (WNW) 04:33:37 437.505
BEESAT 21 Oct 04:38:40 04:42:45 27° 267° (W) 04:46:52 436.000
O/OREOS (USA 219) 21 Oct 04:42:29 04:46:15 24° 36° (NE) 04:50:00 437.305
ITAMSAT 1 21 Oct 04:51:15 04:56:21 48° 100° (E) 05:01:25 435.822/435.867
Gurwin Techsat 1B 21 Oct 04:53:09 04:57:48 32° 303° (WNW) 05:02:28 435.225
NO-84 21 Oct 04:59:37 05:03:34 37° 150° (SSE) 05:07:24 435.350 FM
STRAND 1 21 Oct 05:06:37 05:08:11 11° 39° (NE) 05:09:45 437.568
AO-7 21 Oct 05:10:20 05:18:40 68° 107° (ESE) 05:26:56 .
KKS-1 21 Oct 05:13:03 05:17:30 84° 74° (ENE) 05:22:01 437.445
DOVE 4 21 Oct 05:26:48 05:30:34 22° 89° (E) 05:34:28 437.250
MOZHAYETS 4 21 Oct 05:31:13 05:32:04 10° 279° (W) 05:32:55
CUBESAT XI-V 21 Oct 05:39:51 05:43:43 26° 268° (W) 05:47:37 437.345
STARS 21 Oct 05:44:28 05:48:51 77° 72° (ENE) 05:53:19 437.465
Oscar 19 21 Oct 05:59:37 06:00:56 11° 321° (NW) 06:02:14 437.125/150
LilacSat-2 21 Oct 06:11:52 06:13:25 12° 86° (E) 06:14:58 437.200
RS-15 21 Oct 06:13:21 06:25:28 56° 1° (N) 06:37:09 29.354- 29.394
XW-2D 21 Oct 06:18:06 06:20:00 13° 87° (E) 06:21:55 145.860 - 145.880
O/OREOS (USA 219) 21 Oct 06:21:39 06:26:18 90° 173° (S) 06:30:54 437.305
HO-68 21 Oct 06:29:57 06:32:23 12° 76° (ENE) 06:34:50 435.675
ITAMSAT 1 21 Oct 06:30:57 06:35:45 37° 300° (WNW) 06:40:32 435.822/435.867
XW-2B 21 Oct 06:31:07 06:33:38 17° 89° (E) 06:36:09 145.730 - 145.750
NO-84 21 Oct 06:36:31 06:40:45 75° 171° (S) 06:44:46 435.350 FM
STRAND 1 21 Oct 06:41:22 06:46:07 40° 61° (ENE) 06:50:55 437.568
KKS-1 21 Oct 06:51:49 06:54:41 17° 272° (W) 06:57:34 437.445
XW-2C 21 Oct 06:53:54 06:57:10 27° 94° (E) 07:00:24 145.795 - 145.815
FO-29 21 Oct 07:00:43 07:04:29 19° 43° (NE) 07:08:30 435.910
AO-7 21 Oct 07:03:28 07:11:11 45° 310° (NW) 07:18:54 .
DOVE 4 21 Oct 07:03:51 07:08:44 76° 287° (WNW) 07:13:52 437.250
CUTE-I 21 Oct 07:03:56 07:08:46 33° 94° (E) 07:13:35 437.470
STARS 21 Oct 07:22:42 07:25:45 18° 271° (W) 07:28:48 437.465
CUBEBUG 2 21 Oct 07:26:15 07:28:34 13° 83° (E) 07:30:51 437.445
KAITUO 1B 21 Oct 07:35:19 07:38:58 52° 101° (E) 07:42:34 145.475/437.950
XW-2F 21 Oct 07:38:04 07:41:49 70° 104° (ESE) 07:45:31 145.980 - 146.000
LilacSat-2 21 Oct 07:44:30 07:48:18 90° 106° (ESE) 07:52:05 437.200
NUDT-PHONESAT 21 Oct 07:48:32 07:52:14 70° 104° (ESE) 07:55:52 437.300
XW-2D 21 Oct 07:50:57 07:54:44 81° 286° (WNW) 07:58:28 145.860 - 145.880
CUTE 1.7 + AOD 2 21 Oct 07:54:54 07:58:40 30° 94° (E) 08:02:24 437.475
SEEDS 21 Oct 08:01:03 08:04:28 24° 92° (E) 08:07:52 437.485
O/OREOS (USA 219) 21 Oct 08:02:07 08:05:04 17° 259° (W) 08:08:01 437.305
SO-50 21 Oct 08:02:18 08:06:35 46° 128° (SE) 08:10:55 436.795
UWE-3 21 Oct 08:02:40 08:05:38 17° 86° (E) 08:08:31 435.000/436.395/437.385
XW-2B 21 Oct 08:04:29 08:08:13 62° 289° (WNW) 08:11:54 145.730 - 145.750
ITAMSAT 1 21 Oct 08:12:29 08:13:55 11° 322° (NW) 08:15:21 435.822/435.867
NO-84 21 Oct 08:13:59 08:18:07 72° 192° (SSW) 08:21:59 435.350 FM
HO-68 21 Oct 08:15:04 08:22:04 49° 99° (E) 08:29:00 435.675
UNISAT 6 21 Oct 08:16:15 08:19:14 17° 51° (NE) 08:22:12 437.425
STRAND 1 21 Oct 08:20:24 08:25:18 44° 262° (W) 08:30:16 437.568
AAUSAT CUBESAT 2 21 Oct 08:23:19 08:26:21 20° 90° (E) 08:29:23 437.432
RS-15 21 Oct 08:27:30 08:39:48 76° 33° (NNE) 08:51:26 29.354- 29.394
XW-2C 21 Oct 08:27:58 08:31:27 37° 294° (WNW) 08:34:54 145.795 - 145.815
TIGRISAT 21 Oct 08:30:23 08:33:43 20° 53° (NE) 08:37:04 435.000
PCSat 21 Oct 08:37:08 08:41:37 27° 113° (ESE) 08:46:07 145.827
DOVE 4 21 Oct 08:42:33 08:45:47 18° 307° (NW) 08:49:06 437.250
FO-29 21 Oct 08:43:13 08:48:32 68° 68° (ENE) 08:54:27 435.910
CUTE-I 21 Oct 08:43:51 08:49:06 55° 295° (WNW) 08:54:20 437.470
AO-73 21 Oct 08:52:11 08:55:43 23° 90° (E) 08:59:07 145.935
YUBILEINY 21 Oct 08:54:57 09:02:16 32° 79° (E) 09:09:38 435.215
AO-7 21 Oct 08:56:27 09:02:06 21° 336° (NNW) 09:07:45 .
CUBEBUG 2 21 Oct 09:01:18 09:06:03 75° 103° (ESE) 09:10:37 437.445
PRISM 21 Oct 09:09:21 09:12:15 19° 55° (NE) 09:15:10 437.425
KAITUO 1B 21 Oct 09:09:51 09:12:40 21° 300° (WNW) 09:15:28 145.475/437.950
XW-2A 21 Oct 09:12:14 09:15:36 66° 103° (ESE) 09:18:54 145.665 - 145.685
XW-2F 21 Oct 09:13:01 09:15:31 17° 303° (WNW) 09:18:01 145.980 - 146.000
ZACube-1 21 Oct 09:14:19 09:18:29 38° 96° (E) 09:22:30 437.345
LilacSat-2 21 Oct 09:19:56 09:22:02 15° 305° (NW) 09:24:09 437.200
NUDT-PHONESAT 21 Oct 09:23:15 09:25:40 17° 303° (WNW) 09:28:05 437.300
XW-2D 21 Oct 09:26:29 09:28:18 13° 306° (NW) 09:30:08 145.860 - 145.880
CUTE 1.7 + AOD 2 21 Oct 09:30:39 09:34:37 40° 294° (WNW) 09:38:33 437.475
SEEDS 21 Oct 09:36:21 09:40:26 52° 291° (WNW) 09:44:28 437.485
UWE-3 21 Oct 09:38:07 09:42:44 85° 285° (WNW) 09:47:11 435.000/436.395/437.385
XW-2B 21 Oct 09:40:40 09:41:39 11° 309° (NW) 09:42:39 145.730 - 145.750
SO-50 21 Oct 09:42:41 09:47:05 50° 330° (NNW) 09:51:32 436.795
DELFI C3 21 Oct 09:45:43 09:47:46 14° 86° (E) 09:49:48 145.870
Oscar 11 21 Oct 09:49:51 09:54:05 50° 100° (E) 09:58:15 .
UNISAT 6 21 Oct 09:50:32 09:55:12 75° 72° (ENE) 09:59:57 437.425
NO-84 21 Oct 09:51:36 09:55:11 32° 213° (SSW) 09:58:32 435.350 FM
AIST 2D 21 Oct 09:53:55 09:55:21 12° 55° (NE) 09:56:46 435.315
AAUSAT CUBESAT 2 21 Oct 09:58:07 10:02:12 63° 290° (WNW) 10:06:17 437.432
HO-68 21 Oct 10:02:59 10:09:56 53° 301° (WNW) 10:16:51 435.675
TIGRISAT 21 Oct 10:05:07 10:09:50 90° 52° (NE) 10:14:35 435.000
PCSat 21 Oct 10:19:07 10:24:33 80° 315° (NW) 10:30:02 145.827
EO-88 21 Oct 10:19:20 10:21:29 15° 88° (E) 10:23:38 145.990 - 145.960
CUTE-I 21 Oct 10:25:06 10:28:09 15° 316° (NW) 10:31:11 437.470
AO-73 21 Oct 10:27:57 10:32:19 58° 290° (WNW) 10:36:32 145.935
FO-29 21 Oct 10:29:53 10:34:20 26° 272° (W) 10:39:09 435.910
Max Valier Satellite 21 Oct 10:30:10 10:33:15 24° 93° (E) 10:36:17 145.860
CUBEBUG 2 21 Oct 10:38:34 10:42:12 22° 304° (NW) 10:45:45 437.445
EO-79 21 Oct 10:39:57 10:43:01 20° 55° (NE) 10:46:06 145.935-145.965
RS-15 21 Oct 10:40:29 10:51:58 54° 242° (WSW) 11:02:51 29.354- 29.394
PRISM 21 Oct 10:43:03 10:47:07 73° 256° (WSW) 10:51:12 437.425
POLYITAN 1 21 Oct 10:44:42 10:47:56 21° 56° (NE) 10:51:10 437.675
XW-2A 21 Oct 10:45:53 10:47:54 15° 302° (WNW) 10:49:55 145.665 - 145.685
AO-7 21 Oct 10:47:33 10:52:01 16° 3° (N) 10:56:29 .
YUBILEINY 21 Oct 10:49:33 10:58:16 81° 283° (WNW) 11:07:06 435.215
ZACube-1 21 Oct 10:50:41 10:54:45 36° 297° (WNW) 10:58:43 437.345
QB50P2 21 Oct 11:04:20 11:08:06 31° 61° (ENE) 11:11:53 145.880/145.840
NANOSAT C BR1 21 Oct 11:06:56 11:10:33 28° 60° (ENE) 11:14:12 145.865
SEEDS 21 Oct 11:14:14 11:15:14 11° 312° (NW) 11:16:14 437.485
UWE-3 21 Oct 11:15:31 11:18:33 18° 308° (NW) 11:21:31 435.000/436.395/437.385
DUCHIFAT 1 21 Oct 11:17:07 11:20:49 30° 61° (ENE) 11:24:34 145.980
DELFI C3 21 Oct 11:19:07 11:23:06 87° 293° (WNW) 11:27:05 145.870
BUGSAT 1 21 Oct 11:23:34 11:25:49 14° 51° (NE) 11:28:06 437.445
AIST 2D 21 Oct 11:24:26 11:27:57 82° 75° (ENE) 11:31:29 435.315
SO-50 21 Oct 11:24:28 11:28:25 28° 354° (N) 11:32:23 436.795
Oscar 11 21 Oct 11:26:22 11:30:01 27° 300° (WNW) 11:33:40 .
Gurwin Techsat 1B 21 Oct 11:26:39 11:28:33 12° 39° (NE) 11:30:26 435.225
UNISAT 6 21 Oct 11:28:58 11:32:27 20° 272° (W) 11:35:57 437.425
nSIGHT-1 21 Oct 11:33:25 11:35:47 19° 154° (SSE) 11:38:10 .
AAUSAT CUBESAT 2 21 Oct 11:35:11 11:36:54 12° 310° (NW) 11:38:37 437.432
TIGRISAT 21 Oct 11:44:10 11:47:12 17° 274° (W) 11:50:14 435.000
HO-68 21 Oct 11:51:24 11:56:16 20° 325° (NW) 12:01:07 435.675
EO-88 21 Oct 11:51:57 11:55:35 68° 288° (WNW) 11:59:10 145.990 - 145.960
ESTCUBE 1 21 Oct 11:58:27 12:01:57 22° 90° (E) 12:05:27 437.505/2401.250
Max Valier Satellite 21 Oct 12:03:44 12:07:14 40° 293° (WNW) 12:10:41 145.860
PCSat 21 Oct 12:03:49 12:08:42 32° 338° (NNW) 12:13:36 145.827
AO-73 21 Oct 12:05:45 12:07:40 13° 312° (NW) 12:09:33 145.935
ISS 21 Oct 12:07:44 12:10:29 25° 159° (SSE) 12:13:15 437.550
M-CUBED/EXP-1 PRIME 21 Oct 12:12:19 12:14:44 19° 52° (NE) 12:17:08 437.505
EO-79 21 Oct 12:14:01 12:18:19 79° 255° (WSW) 12:22:38 145.935-145.965
POLYITAN 1 21 Oct 12:19:00 12:23:18 72° 257° (WSW) 12:27:37 437.675
PRISM 21 Oct 12:22:01 12:23:09 11° 276° (W) 12:24:18 437.425
Oscar 19 21 Oct 12:24:48 12:29:13 30° 57° (ENE) 12:33:39 437.125/150
SPROUT 21 Oct 12:30:23 12:32:32 13° 85° (E) 12:34:41 437.525
AO-7 21 Oct 12:35:55 12:42:04 24° 30° (NNE) 12:48:13 .
LO-87 21 Oct 12:38:45 12:42:24 64° 102° (ESE) 12:46:01 145.935 - 145.965
QB50P2 21 Oct 12:39:40 12:43:47 44° 261° (W) 12:47:55 145.880/145.840
NANOSAT C BR1 21 Oct 12:41:56 12:46:05 49° 260° (W) 12:50:16 145.865
YUBILEINY 21 Oct 12:49:22 12:56:37 28° 310° (NW) 13:03:58 435.215
DUCHIFAT 1 21 Oct 12:52:17 12:56:22 44° 261° (W) 13:00:29 145.980
RS-15 21 Oct 12:54:55 13:01:18 17° 269° (W) 13:07:32 29.354- 29.394
DELFI C3 21 Oct 12:54:59 12:57:18 15° 306° (NW) 12:59:36 145.870
BUGSAT 1 21 Oct 12:56:16 13:00:28 70° 72° (ENE) 13:04:44 437.445
AIST 2D 21 Oct 13:00:16 13:01:39 12° 274° (W) 13:03:03 435.315
Gurwin Techsat 1B 21 Oct 13:02:18 13:07:14 40° 61° (ENE) 13:12:12 435.225
SO-50 21 Oct 13:05:47 13:09:57 34° 18° (NNE) 13:14:09 436.795
nSIGHT-1 21 Oct 13:08:33 13:11:33 37° 174° (S) 13:14:32 .
BEESAT 2 21 Oct 13:12:44 13:15:31 18° 117° (ESE) 13:18:19 435.950
VELOX 1 21 Oct 13:20:37 13:24:22 26° 93° (E) 13:28:05 145.980
BEESAT 3 21 Oct 13:25:59 13:29:54 52° 130° (SE) 13:33:50 437.485
AO-85 21 Oct 13:26:07 13:28:33 16° 115° (ESE) 13:31:02 145.980
EO-88 21 Oct 13:27:25 13:28:33 11° 308° (NW) 13:29:41 145.990 - 145.960
ESTCUBE 1 21 Oct 13:34:43 13:39:10 63° 290° (WNW) 13:43:36 437.505/2401.250
HO-68 21 Oct 13:39:56 13:41:24 11° 351° (N) 13:42:52 435.675
ISS 21 Oct 13:43:26 13:46:31 39° 179° (S) 13:49:37 437.550
M-CUBED/EXP-1 PRIME 21 Oct 13:45:44 13:48:57 50° 251° (WSW) 13:52:10 437.505
PCSat 21 Oct 13:49:05 13:53:35 26° 4° (N) 13:58:06 145.827
EO-79 21 Oct 13:52:53 13:54:49 13° 275° (W) 13:56:46 145.935-145.965
POLYITAN 1 21 Oct 13:58:22 13:59:54 12° 276° (W) 14:01:26 437.675
Oscar 19 21 Oct 14:03:09 14:08:16 62° 257° (WSW) 14:13:25 437.125/150
SPROUT 21 Oct 14:04:48 14:09:09 83° 107° (ESE) 14:13:27 437.525
LO-87 21 Oct 14:12:56 14:15:26 18° 302° (WNW) 14:17:56 145.935 - 145.965
DX 1 21 Oct 14:23:59 14:27:48 28° 94° (E) 14:31:37 434.975-435.025
AO-7 21 Oct 14:25:19 14:33:19 56° 55° (NE) 14:41:20 .
BUGSAT 1 21 Oct 14:33:18 14:36:18 19° 271° (W) 14:39:18 437.445
ITAMSAT 1 21 Oct 14:38:17 14:42:54 33° 58° (ENE) 14:47:33 435.822/435.867
50 SAT 21 Oct 14:41:16 14:44:29 44° 100° (E) 14:47:40 437.505
Gurwin Techsat 1B 21 Oct 14:42:06 14:47:11 45° 262° (W) 14:52:18 435.225
nSIGHT-1 21 Oct 14:44:32 14:47:26 32° 193° (SSW) 14:50:21 .
UKube-1 21 Oct 14:46:04 14:49:55 30° 95° (E) 14:53:45 .
SO-50 21 Oct 14:46:20 14:50:57 85° 42° (NE) 14:55:35 436.795
BEESAT 2 21 Oct 14:48:40 14:52:43 89° 141° (SE) 14:56:50 435.950
YUBILEINY 21 Oct 14:54:08 14:57:29 12° 342° (NNW) 15:00:51 435.215
VELOX 1 21 Oct 14:56:45 15:01:05 53° 293° (WNW) 15:05:25 145.980
BEESAT 3 21 Oct 15:03:45 15:07:35 40° 332° (NNW) 15:11:26 437.485
AO-85 21 Oct 15:04:22 15:08:18 85° 136° (SE) 15:12:27 145.980
ESTCUBE 1 21 Oct 15:12:53 15:15:11 14° 311° (NW) 15:17:29 437.505/2401.250
ISS 21 Oct 15:19:45 15:22:35 27° 199° (SSW) 15:25:24 437.550
HO-68 21 Oct 15:23:34 15:26:10 12° 18° (NNE) 15:28:46 435.675
PCSat 21 Oct 15:33:12 15:38:20 40° 29° (NNE) 15:43:27 145.827
MOZHAYETS 4 21 Oct 15:37:05 15:40:29 20° 89° (E) 15:43:52
SPROUT 21 Oct 15:41:31 15:44:33 19° 305° (NW) 15:47:33 437.525
Oscar 19 21 Oct 15:46:36 15:48:40 12° 278° (W) 15:50:45 437.125/150
DX 1 21 Oct 15:59:59 16:04:11 47° 294° (WNW) 16:08:23 434.975-435.025
50 SAT 21 Oct 16:14:04 16:16:34 20° 299° (WNW) 16:19:03 437.505
ITUPSAT 1 21 Oct 16:15:09 16:19:34 34° 96° (E) 16:23:56 437.325
ITAMSAT 1 21 Oct 16:17:04 16:22:11 56° 259° (WSW) 16:27:21 435.822/435.867
AO-7 21 Oct 16:18:11 16:26:14 53° 258° (WSW) 16:34:20 .
nSIGHT-1 21 Oct 16:21:22 16:23:04 14° 212° (SSW) 16:24:45 .
UKube-1 21 Oct 16:21:58 16:26:06 43° 295° (WNW) 16:30:12 .
BEESAT 2 21 Oct 16:27:16 16:30:54 31° 339° (NNW) 16:34:35 435.950
SO-50 21 Oct 16:27:20 16:30:58 23° 241° (WSW) 16:34:37 436.795
BEESAT 21 Oct 16:29:54 16:34:31 45° 99° (E) 16:39:06 436.000
VELOX 1 21 Oct 16:34:54 16:36:38 12° 313° (NW) 16:38:22 145.980
DOVE 4 21 Oct 16:39:39 16:43:41 41° 64° (ENE) 16:47:56 437.250
BEESAT 3 21 Oct 16:42:45 16:46:01 23° 355° (N) 16:49:17 437.485
AO-85 21 Oct 16:45:30 16:49:07 32° 340° (NNW) 16:52:58 145.980
KAITUO 1B 21 Oct 16:50:40 16:52:17 12° 53° (NE) 16:53:53 145.475/437.950
XW-2F 21 Oct 16:53:27 16:55:44 16° 56° (NE) 16:58:02 145.980 - 146.000
CUTE-I 21 Oct 16:54:53 16:59:08 25° 53° (NE) 17:03:26 437.470
YUBILEINY 21 Oct 16:56:25 16:59:43 12° 17° (NNE) 17:03:01 435.215
LilacSat-2 21 Oct 17:00:16 17:03:04 20° 59° (ENE) 17:05:51 437.200
NUDT-PHONESAT 21 Oct 17:02:29 17:04:38 15° 56° (NE) 17:06:46 437.300
HO-68 21 Oct 17:05:57 17:11:37 26° 43° (NE) 17:17:19 435.675
XW-2D 21 Oct 17:05:58 17:08:50 21° 60° (ENE) 17:11:43 145.860 - 145.880
MOZHAYETS 4 21 Oct 17:13:33 17:18:10 72° 289° (WNW) 17:22:42
PCSat 21 Oct 17:16:42 17:22:08 71° 232° (SW) 17:27:32 145.827
XW-2B 21 Oct 17:19:06 17:22:15 26° 62° (ENE) 17:25:25 145.730 - 145.750
CUTE 1.7 + AOD 2 21 Oct 17:22:02 17:23:29 12° 49° (NE) 17:24:56 437.475
CUBESAT XI-V 21 Oct 17:27:23 17:31:52 47° 99° (E) 17:36:18 437.345
DX 1 21 Oct 17:38:17 17:39:25 11° 315° (NW) 17:40:33 434.975-435.025
XW-2C 21 Oct 17:41:54 17:45:28 40° 67° (ENE) 17:49:03 145.795 - 145.815
ITUPSAT 1 21 Oct 17:52:56 17:57:31 45° 296° (WNW) 18:02:05 437.325
UKube-1 21 Oct 18:00:43 18:01:06 10° 316° (NW) 18:01:30 .
ITAMSAT 1 21 Oct 18:01:29 18:02:51 11° 279° (W) 18:04:14 435.822/435.867
BEESAT 2 21 Oct 18:06:22 18:09:40 23° 3° (N) 18:12:59 435.950
BEESAT 21 Oct 18:07:52 18:12:14 35° 299° (WNW) 18:16:32 436.000
AO-7 21 Oct 18:17:11 18:21:11 14° 282° (WNW) 18:25:10 .
DOVE 4 21 Oct 18:17:41 18:21:31 32° 266° (W) 18:25:34 437.250
XW-2A 21 Oct 18:20:08 18:21:14 11° 54° (NE) 18:22:19 145.665 - 145.685
BEESAT 3 21 Oct 18:21:05 18:24:36 28° 18° (NNE) 18:28:07 437.485
KAITUO 1B 21 Oct 18:21:56 18:25:38 76° 74° (ENE) 18:29:22 145.475/437.950
AO-73 21 Oct 18:22:16 18:23:14 11° 46° (NE) 18:24:13 145.935
XW-2F 21 Oct 18:25:36 18:29:23 82° 256° (WSW) 18:33:10 145.980 - 146.000
AO-85 21 Oct 18:27:07 18:30:35 25° 5° (N) 18:34:15 145.980
CUBEBUG 2 21 Oct 18:30:31 18:34:32 28° 59° (ENE) 18:38:35 437.445
KKS-1 21 Oct 18:32:41 18:37:08 58° 102° (ESE) 18:41:34 437.445
LilacSat-2 21 Oct 18:33:12 18:37:00 61° 259° (WSW) 18:40:47 437.200
CUTE-I 21 Oct 18:33:21 18:38:42 81° 255° (WSW) 18:44:06 437.470
NUDT-PHONESAT 21 Oct 18:34:16 18:37:59 85° 255° (WSW) 18:41:44 437.300
XW-2D 21 Oct 18:39:00 18:42:44 55° 259° (W) 18:46:29 145.860 - 145.880
ZACube-1 21 Oct 18:42:53 18:45:38 16° 52° (NE) 18:48:22 437.345
HO-68 21 Oct 18:51:16 18:58:25 75° 66° (ENE) 19:05:38 435.675
MOZHAYETS 4 21 Oct 18:51:51 18:54:35 16° 310° (NW) 18:57:19
XW-2B 21 Oct 18:52:40 18:56:17 42° 261° (W) 18:59:55 145.730 - 145.750
YUBILEINY 21 Oct 18:53:20 19:00:38 28° 49° (NE) 19:07:56 435.215
CUTE 1.7 + AOD 2 21 Oct 18:54:21 18:58:29 55° 69° (ENE) 19:02:37 437.475
SEEDS 21 Oct 18:59:28 19:03:24 42° 66° (ENE) 19:07:21 437.485
PCSat 21 Oct 19:01:16 19:04:39 17° 253° (WSW) 19:08:02 145.827
STARS 21 Oct 19:02:17 19:06:39 51° 101° (E) 19:10:58 437.465
CUBESAT XI-V 21 Oct 19:05:03 19:09:06 32° 299° (WNW) 19:13:10 437.345
UWE-3 21 Oct 19:06:00 19:10:12 34° 62° (ENE) 19:14:24 435.000/436.395/437.385
XW-2C 21 Oct 19:16:35 19:19:47 26° 266° (W) 19:23:01 145.795 - 145.815
Oscar 11 21 Oct 19:17:17 19:20:16 18° 55° (NE) 19:23:15 .
AAUSAT CUBESAT 2 21 Oct 19:20:07 19:23:50 33° 64° (ENE) 19:27:33 437.432
ITUPSAT 1 21 Oct 19:32:36 19:34:16 12° 318° (NW) 19:35:57 437.325
BEESAT 2 21 Oct 19:44:31 19:48:20 37° 26° (NNE) 19:52:08 435.950
XW-2A 21 Oct 19:49:56 19:53:21 78° 73° (ENE) 19:56:46 145.665 - 145.685
AO-73 21 Oct 19:54:06 19:58:26 44° 66° (ENE) 20:02:46 145.935
KAITUO 1B 21 Oct 19:58:04 20:00:07 14° 273° (W) 20:02:10 145.475/437.950
BEESAT 3 21 Oct 19:58:39 20:02:41 79° 40° (NE) 20:06:39 437.485
XW-2F 21 Oct 20:03:02 20:04:09 11° 275° (W) 20:05:15 145.980 - 146.000
CUBEBUG 2 21 Oct 20:06:13 20:10:52 59° 259° (W) 20:15:37 437.445
AO-85 21 Oct 20:07:47 20:11:53 42° 28° (NNE) 20:16:17 145.980
KKS-1 21 Oct 20:09:42 20:13:26 26° 302° (WNW) 20:17:09 437.445
NUDT-PHONESAT 21 Oct 20:11:19 20:12:29 11° 275° (W) 20:13:38 437.300
CUTE-I 21 Oct 20:16:11 20:19:37 17° 275° (W) 20:23:04 437.470
ZACube-1 21 Oct 20:16:37 20:21:12 73° 72° (ENE) 20:25:46 437.345
STRAND 1 21 Oct 20:22:45 20:27:34 38° 96° (E) 20:32:21 437.568
CUTE 1.7 + AOD 2 21 Oct 20:31:16 20:34:38 23° 269° (W) 20:38:01 437.475
SEEDS 21 Oct 20:35:34 20:39:13 29° 266° (W) 20:42:54 437.485
DELFI C3 21 Oct 20:37:37 20:40:41 22° 60° (ENE) 20:43:47 145.870
STARS 21 Oct 20:38:58 20:42:48 29° 301° (WNW) 20:46:37 437.465
HO-68 21 Oct 20:40:32 20:46:49 32° 268° (W) 20:53:11 435.675
UWE-3 21 Oct 20:42:03 20:46:32 46° 262° (W) 20:51:04 435.000/436.395/437.385
O/OREOS (USA 219) 21 Oct 20:42:14 20:45:51 23° 104° (ESE) 20:49:28 437.305
YUBILEINY 21 Oct 20:50:11 20:59:03 79° 76° (ENE) 21:07:54 435.215
Oscar 11 21 Oct 20:51:33 20:55:54 85° 255° (WSW) 21:00:15 .
AAUSAT CUBESAT 2 21 Oct 20:55:29 20:59:17 36° 264° (W) 21:03:06 437.432
EO-88 21 Oct 21:03:43 21:06:32 21° 60° (ENE) 21:09:22 145.990 - 145.960
Max Valier Satellite 21 Oct 21:15:41 21:19:05 34° 65° (ENE) 21:22:30 145.860
BEESAT 2 21 Oct 21:22:16 21:26:18 61° 228° (SW) 21:30:17 435.950
XW-2A 21 Oct 21:25:07 21:26:32 12° 273° (W) 21:27:57 145.665 - 145.685
FO-29 21 Oct 21:27:32 21:33:43 37° 94° (E) 21:40:29 435.910
AO-73 21 Oct 21:30:42 21:34:49 32° 266° (W) 21:38:55 145.935
ESTCUBE 1 21 Oct 21:31:53 21:33:14 11° 45° (NE) 21:34:36 437.505/2401.250
BEESAT 3 21 Oct 21:36:48 21:39:49 21° 241° (WSW) 21:42:48 437.485
UNISAT 6 21 Oct 21:37:22 21:38:04 10° 80° (E) 21:38:47 437.425
CUBEBUG 2 21 Oct 21:47:22 21:48:31 11° 280° (W) 21:49:41 437.445
AO-85 21 Oct 21:48:09 21:52:28 57° 229° (SW) 21:57:07 145.980
LO-87 21 Oct 21:50:26 21:52:10 13° 54° (NE) 21:53:56 145.935 - 145.965
TIGRISAT 21 Oct 21:50:39 21:52:43 13° 83° (E) 21:54:46 435.000
ZACube-1 21 Oct 21:54:36 21:57:59 20° 272° (W) 22:01:21 437.345
STRAND 1 21 Oct 22:01:57 22:06:53 46° 297° (WNW) 22:11:47 437.568
DELFI C3 21 Oct 22:11:20 22:15:10 54° 259° (W) 22:19:03 145.870
O/OREOS (USA 219) 21 Oct 22:20:17 22:24:52 68° 306° (NW) 22:29:29 437.305
Oscar 11 21 Oct 22:30:26 22:32:44 14° 275° (W) 22:35:01 .
EO-88 21 Oct 22:36:23 22:39:56 49° 259° (W) 22:43:31 145.990 - 145.960
YUBILEINY 21 Oct 22:47:37 22:55:07 33° 280° (W) 23:02:38 435.215
Max Valier Satellite 21 Oct 22:49:38 22:52:57 30° 265° (W) 22:56:17 145.860
VELOX 1 21 Oct 22:51:29 22:53:22 13° 47° (NE) 22:55:15 145.980
BEESAT 2 21 Oct 23:01:46 23:03:15 12° 248° (WSW) 23:04:43 435.950
ESTCUBE 1 21 Oct 23:04:45 23:09:04 48° 67° (ENE) 23:13:24 437.505/2401.250
RS-15 21 Oct 23:07:26 23:13:27 15° 90° (E) 23:19:26 29.354- 29.394
UNISAT 6 21 Oct 23:11:11 23:15:49 59° 101° (E) 23:20:20 437.425
FO-29 21 Oct 23:12:34 23:19:08 66° 293° (WNW) 23:26:27 435.910
LO-87 21 Oct 23:21:23 23:25:00 84° 73° (ENE) 23:28:40 145.935 - 145.965
TIGRISAT 21 Oct 23:25:37 23:30:18 72° 104° (ESE) 23:34:51 435.000
SPROUT 21 Oct 23:30:03 23:33:40 27° 60° (ENE) 23:37:19 437.525
AO-85 21 Oct 23:30:14 23:32:08 12° 248° (WSW) 23:34:04 145.980
STRAND 1 21 Oct 23:42:44 23:44:56 13° 318° (NW) 23:47:08 437.568
PRISM 21 Oct 23:51:41 23:55:47 63° 103° (ESE) 23:59:54 437.425
DX 1 21 Oct 23:53:02 23:55:11 14° 49° (NE) 23:57:22 434.975-435.025
EO-79 21 Oct 23:53:04 23:54:19 11° 83° (E) 23:55:34 145.935-145.965
POLYITAN 1 21 Oct 23:57:45 23:59:32 12° 84° (E) 00:01:19 437.675
O/OREOS (USA 219) 22 Oct 00:01:44 00:05:08 20° 329° (NNW) 00:08:34 437.305
UKube-1 22 Oct 00:14:01 00:16:16 14° 49° (NE) 00:18:32 .
AIST 2D 22 Oct 00:15:00 00:18:13 34° 97° (E) 00:21:24 435.315
QB50P2 22 Oct 00:17:09 00:20:18 20° 89° (E) 00:23:25 145.880/145.840
NANOSAT C BR1 22 Oct 00:19:08 00:21:58 17° 88° (E) 00:24:47 145.865
VELOX 1 22 Oct 00:24:39 00:28:57 56° 68° (ENE) 00:33:17 145.980
DUCHIFAT 1 22 Oct 00:28:57 00:31:57 19° 89° (E) 00:34:57 145.980
ESTCUBE 1 22 Oct 00:42:11 00:46:05 29° 266° (W) 00:50:01 437.505/2401.250
UNISAT 6 22 Oct 00:48:21 00:52:15 27° 302° (WNW) 00:56:04 437.425
LO-87 22 Oct 00:57:23 00:58:57 12° 274° (W) 01:00:33 145.935 - 145.965
FO-29 22 Oct 00:58:31 01:03:17 22° 314° (NW) 01:08:26 435.910
TIGRISAT 22 Oct 01:02:55 01:06:33 23° 304° (NW) 01:10:08 435.000
SPROUT 22 Oct 01:05:10 01:09:21 51° 260° (W) 01:13:35 437.525
RS-15 22 Oct 01:11:09 01:22:43 50° 116° (ESE) 01:34:10 29.354- 29.394
MOZHAYETS 4 22 Oct 01:12:44 01:13:58 11° 44° (NE) 01:15:12
50 SAT 22 Oct 01:16:31 01:19:42 53° 70° (ENE) 01:22:56 437.505
DX 1 22 Oct 01:26:19 01:30:36 63° 69° (ENE) 01:34:56 434.975-435.025
EO-79 22 Oct 01:26:37 01:30:55 69° 103° (ESE) 01:35:09 145.935-145.965
PRISM 22 Oct 01:27:33 01:30:44 22° 303° (WNW) 01:33:55 437.425
POLYITAN 1 22 Oct 01:31:47 01:36:06 76° 106° (ESE) 01:40:21 437.675
O/OREOS (USA 219) 22 Oct 01:45:00 01:46:24 11° 354° (N) 01:47:49 437.305
UKube-1 22 Oct 01:47:17 01:51:33 67° 70° (ENE) 01:55:51 .
AIST 2D 22 Oct 01:48:21 01:51:19 26° 296° (WNW) 01:54:16 435.315
QB50P2 22 Oct 01:52:16 01:56:32 67° 290° (WNW) 02:00:45 145.880/145.840
ITUPSAT 1 22 Oct 01:53:04 01:56:34 20° 52° (NE) 02:00:04 437.325
NANOSAT C BR1 22 Oct 01:53:55 01:58:12 77° 289° (WNW) 02:02:27 145.865
VELOX 1 22 Oct 02:02:09 02:05:43 24° 268° (W) 02:09:20 145.980
DUCHIFAT 1 22 Oct 02:03:50 02:08:06 70° 290° (WNW) 02:12:18 145.980
BUGSAT 1 22 Oct 02:05:40 02:09:44 42° 98° (E) 02:13:44 437.445
BEESAT 22 Oct 02:07:03 02:10:56 25° 55° (NE) 02:14:48 436.000
Oscar 19 22 Oct 02:07:06 02:11:27 27° 92° (E) 02:15:46 437.125/150
MOZHAYETS 4 22 Oct 02:45:40 02:50:05 45° 65° (ENE) 02:54:30
Gurwin Techsat 1B 22 Oct 02:50:05 02:55:09 42° 97° (E) 03:00:11 435.225
M-CUBED/EXP-1 PRIME 22 Oct 02:50:14 02:53:14 26° 103° (ESE) 02:56:23 437.505
50 SAT 22 Oct 02:50:16 02:52:19 16° 269° (W) 02:54:24 437.505
CUBESAT XI-V 22 Oct 03:02:04 03:05:32 21° 55° (NE) 03:08:59 437.345
EO-79 22 Oct 03:03:02 03:06:17 21° 303° (WNW) 03:09:31 145.935-145.965
DX 1 22 Oct 03:03:53 03:07:12 21° 269° (W) 03:10:32 434.975-435.025
POLYITAN 1 22 Oct 03:08:19 03:11:26 20° 305° (NW) 03:14:31 437.675
